Regional Weather Roundup
Issued by NWS

Home | Current Version | Previous Version | Graphics & Text | Print | Product List | Glossary On
Versions: 1 2 3 4 5 6 7 8 9 10 11 12 13 14 15 16 17 18 19 20 21 22 23 24 25 26 27
000
ASUS45 KSLC 131710
RWRUT

UTAH REGIONAL WEATHER ROUNDUP
NATIONAL WEATHER SERVICE SALT LAKE CITY UT
1000 AM MST WED DEC 13 2017

UTZ001>011-023>025-131800-

NORTHERN UTAH

CITY           SKY/WX    TMP DP  RH WIND       PRES   REMARKS
BRIGHAM CITY   CLOUDY    22  19  90 CALM      30.38S
DUGWAY         SNOW      11  10  95 CALM      30.38S VSB 1/2
HILL AFB       MOSUNNY   22  21  96 CALM      30.33F FOG
LOGAN          CLOUDY    22  14  71 CALM      30.34F
OGDEN          CLOUDY    23  20  88 CALM      30.34F FOG
SALT LAKE CITY CLOUDY    23  21  92 W5        30.36F FOG     WCI  17
TOOELE VALLEY  LGT SNOW  23  21  93 CALM      30.37F
WENDOVER       SNOW      14  12  92 CALM      30.37F VSB 1/4
HEBER CITY       N/A     25  18  74 E3        30.30S
WEST JORDAN    CLOUDY   N/A N/A N/A CALM      30.36S VSB 1/2

$$

UTZ011>015-024>027-131800-

CENTRAL/NORTHEAST UTAH

CITY           SKY/WX    TMP DP  RH WIND       PRES   REMARKS
PROVO AIRPORT  MOSUNNY   22  20  92 CALM      30.37S HAZE
MOAB/CANYONLAN PTSUNNY   30   4  33 NW5       30.25S WCI  25
DELTA          PTSUNNY   21  14  73 CALM      30.35R
PRICE          PTSUNNY   34   4  28 NW3       30.24R
RICHFIELD      SUNNY     27   5  39 CALM      30.33F
ROOSEVELT      CLOUDY    28  12  50 CALM      30.30S
VERNAL         CLOUDY    27   9  46 CALM      30.27S

$$

UTZ013>016-019>022-027-131800-

SOUTHERN UTAH

CITY           SKY/WX    TMP DP  RH WIND       PRES   REMARKS
BRYCE CANYON   MOSUNNY   37   4  25 NE3       30.30S
CEDAR CITY     MOSUNNY   28   9  44 NE3       30.28R
MILFORD        PTSUNNY   23  10  57 CALM      30.32F
ST GEORGE      MOSUNNY   38   6  26 CALM      30.24S
HANKSVILLE     PTSUNNY   27   0  31 CALM      30.29F
KANAB          SUNNY     36   3  25 CALM      30.27F
BLANDING         N/A     36   4  26 CALM      30.31S

$$

REGIONAL REPORTS     COLORADO/ARIZONA

CITY           SKY/WX    TMP DP  RH WIND       PRES   REMARKS
CRAIG, CO      CLOUDY    23  17  78 CALM      30.26S
GRAND JUNCTION CLOUDY    36  14  40 E8        30.25S WCI  30
RIFLE, CO      CLOUDY    27  14  58 CALM      30.29R
MONTROSE, CO   SUNNY     36  11  35 CALM      30.28F
CORTEZ, CO     SUNNY     36   9  32 CALM      30.24S
COLORADO CITY    N/A     41   9  26 CALM      30.26S
PAGE, AZ       SUNNY     38   8  29 W3        30.24F
GRAND CANYON   SUNNY     52  13  21 NE6       30.25S
KINGMAN, AZ    SUNNY     53  10  18 E7        30.16S
FLAGSTAFF, AZ  SUNNY     42   4  20 CALM      30.25S

$$

REGIONAL REPORTS    NEVADA/IDAHO/WYOMING

CITY           SKY/WX    TMP DP  RH WIND       PRES   REMARKS
LAS VEGAS, NV  SUNNY     56   6  13 CALM      30.16R
ELY, NY        MOSUNNY   29   7  39 S10       30.32R WCI  20
ELKO, NV       PTSUNNY   16  12  84 CALM      30.37F
POCATELLO, ID  CLOUDY    21  19  92 S6        30.32F FOG     WCI  13
BURLEY, ID     CLOUDY    23  18  81 S5        30.34S HAZE    WCI  17
FORT BRIDGER,  CLOUDY    39   4  23 W6        30.27S WCI  34
EVANSTON, WY   CLOUDY    32   8  36 SW12      30.25F WCI  23
ROCK SPRINGS,  CLOUDY    37   2  22 SW9       30.22F WCI  30

$$




USA.gov is the U.S. government's official web portal to all federal, state and local government web resources and services.